Regional Weather Roundup
Issued by NWS

Home | Current Version | Previous Version | Graphics & Text | Print | Product List | Glossary On
Versions: 1 2 3 4 5 6 7 8 9 10 11 12 13 14 15 16 17 18 19 20 21 22 23 24 25 26 27 28 29 30 31 32 33 34 35 36 37 38 39 40 41 42 43 44 45 46 47 48 49 50
000
ASUS43 KLOT 191403
RWRIL

ILLINOIS REGIONAL WEATHER ROUNDUP
NATIONAL WEATHER SERVICE CHICAGO/ROMEOVILLE IL
800 AM CST SUN NOV 19 2017

NOTE: "FAIR" INDICATES FEW OR NO CLOUDS BELOW 12,000 FEET WITH NO
SIGNIFICANT WEATHER AND/OR OBSTRUCTIONS TO VISIBILITY.

* THESE STATIONS ARE NOT UNDER NWS QUALITY CONTROL. THEY ALSO MAY NOT
  REPORT WEATHER SUCH AS PRECIPITATION OR FOG.

ILZ001-002-007-009-015-016-024-191500-
NORTHWEST ILLINOIS

CITY           SKY/WX    TMP DP  RH WIND       PRES   REMARKS
MOLINE         CLEAR     25  13  60 NW13      30.12R WCI  14
STERLING*        N/A    N/A N/A N/A MISG        N/A
SAVANNA*       CLEAR     24  16  71 NW10      30.09R WCI  13
$$

ILZ003-004-008-010-011-017-018-191500-
NORTH CENTRAL ILLINOIS

CITY           SKY/WX    TMP DP  RH WIND       PRES   REMARKS
ROCKFORD       CLEAR     24  16  71 NW9       30.05R WCI  14
FREEPORT*      CLEAR     22  15  72 NW15G21   30.07R WCI   9
ROCHELLE*      SUNNY     25  17  73 NW13G20   30.05R WCI  13
DE KALB*       SUNNY     26  20  79 NW17G23   30.03R WCI  13
PERU*          SUNNY     24  18  77 W13       30.08R WCI  13
$$

ILZ005-006-012>014-019>023-191500-
NORTHEAST ILLINOIS

CITY           SKY/WX    TMP DP  RH WIND       PRES   REMARKS
CHICAGO-OHARE  MOSUNNY   30  18  60 NW14      30.00R WCI  19
CHICAGO-MIDWAY MOSUNNY   30  19  63 NW14      30.01R WCI  19
AURORA         MOSUNNY   27  21  78 W20       30.03R WCI  13
LANSING*       CLOUDY    30  22  72 NW13G21   30.01R WCI  20
JOLIET*        PTSUNNY   30  23  73 W10       30.04R WCI  21
WAUKEGAN       MOSUNNY   29  18  63 NW9       29.97R WCI  20
DUPAGE AIRPORT PTSUNNY   28  20  71 NW12      30.01R WCI  18
KANKAKEE*      CLOUDY    30  21  70 W15G22    30.05R WCI  19
WHEELING       SUNNY     30  19  63 NW16G23   30.01R WCI  19
MORRIS*        SUNNY     29  22  76 NW15G22   30.04R WCI  17
ROMEOVILLE*    CLOUDY    29  23  79 W13       30.02R WCI  19
NORTHERLY ISL    N/A     31  20  63 W10         N/A  WCI  22
$$

LMZ740>746-191500-
SOUTHERN LAKE MICHIGAN

STATION/POSITION SKY/WX   TEMP    WIND        PRES    VSBY  WAVE
                          AIR SEA DIR/SP/G                  HT/PER
                          (F)     (DEG/KT/KT) (MB)    (MI)  (FT/S)
SOUTHERN BUOY              33 49  330/ 21/ 25 1013.6          6/ 7
HARRISON CRIB              31     290/ 20/ 21   N/A
BURNHAM HARBOR             31     270/  7/ 16   N/A
BURNS HARBOR               34     280/ 20/ 23 1015.2R
MICHIGAN CITY              33     290/ 20/ 24   N/A
$$

ILZ025>027-034>036-040-047-049-050-058-095>099-191500-
WEST-CENTRAL ILLINOIS

CITY           SKY/WX    TMP DP  RH WIND       PRES   REMARKS
QUINCY         CLEAR     27  15  61 NW14      30.17R WCI  16
GALESBURG*     CLEAR     24  18  78 W13       30.13S WCI  12
MACOMB*        CLEAR     25  18  75 NW13      30.17S WCI  14
JACKSONVILLE*  SUNNY     27  17  64 W12       30.16R WCI  17
PITTSFIELD*    SUNNY     28  18  66 W7        30.19R WCI  21
$$

ILZ028>032-037-038-041>044-048-051>054-059>061-191500-
CENTRAL ILLINOIS

CITY           SKY/WX    TMP DP  RH WIND       PRES   REMARKS
PONTIAC        CLOUDY    28  25  87 W18       30.08R WCI  15
BLOOMINGTON    PTSUNNY   24  18  77 NW17G23   30.10R WCI  11
DECATUR        MOSUNNY   27  20  75 NW16G24   30.12R WCI  15
PEORIA         SUNNY     25  17  72 NW13G23   30.13R WCI  14
LACON*         SUNNY     25  18  75 NW12G21   30.10R WCI  14
LINCOLN*       SUNNY     28  20  75 W7        30.13R WCI  20
SPRINGFIELD    SUNNY     28  19  69 NW13      30.15R WCI  17
TAYLORVILLE    SUNNY     28  19  69 W13G22    30.15R WCI  17
$$

ILZ033-039-045-046-055>057-062-063-191500-
EAST-CENTRAL ILLINOIS

CITY           SKY/WX    TMP DP  RH WIND       PRES   REMARKS
CHAMPAIGN      PTSUNNY   29  22  75 NW18      30.09R WCI  16
DANVILLE*      CLOUDY    29  24  83 W15G22    30.04R WCI  17
RANTOUL*       CLOUDY    30  24  79 NW14G22   30.08R WCI  19
MATTOON        CLOUDY    29  24  82 W17       30.09R WCI  17
PARIS*         CLOUDY    31  26  81 W17       30.09R WCI  19
$$

ILZ079-100>102-191500-
SOUTHWEST ILLINOIS

CITY           SKY/WX    TMP DP  RH WIND       PRES   REMARKS
ALTON          SUNNY     30  19  64 NW12      30.18R WCI  21
BELLEVILLE     SUNNY     32  22  65 NW9       30.18R WCI  24
CAHOKIA*       SUNNY     33  21  61 NW14      30.19R WCI  23
SPARTA*        MOSUNNY   32  22  67 W10G16    30.20R WCI  24
$$

ILZ064>066-069>071-074>076-080>082-084>086-088>090-092>094-191500-
SOUTH-CENTRAL ILLINOIS

CITY           SKY/WX    TMP DP  RH WIND       PRES   REMARKS
CARBONDALE     SUNNY     34  24  67 NW10      30.18R WCI  26
CAIRO*         MOSUNNY   36  26  68 NW12      30.19R WCI  28
EFFINGHAM*     MOSUNNY   31  23  73 W14       30.15R WCI  20
MARION         SUNNY     34  25  69 NW12      30.17S WCI  25
MT. VERNON     MOSUNNY   32  21  64 VRB5      30.16R WCI  27
CENTRALIA*     SUNNY     32  25  73 NW12      30.15R WCI  23
SALEM*         SUNNY     32  21  63 NW16      30.15R WCI  21
METROPOLIS*    MOSUNNY   36  26  65 NW6       30.18R WCI  31
$$

ILZ067-068-072-073-078-083-087-091-191500-
SOUTHEAST ILLINOIS

CITY           SKY/WX    TMP DP  RH WIND       PRES   REMARKS
LAWRENCEVILLE  PTSUNNY   35  26  69 W12       30.11R WCI  27
FLORA*         SUNNY     32  23  70 NW14G23   30.07  WCI  22
FAIRFIELD*     MOSUNNY   32  21  65 NW5       30.14R WCI  27
HARRISBURG*    SUNNY     33  24  68 NW9       30.16S WCI  26
ROBINSON*      CLOUDY    32  26  80 W13       30.11R WCI  22
CARMI*         SUNNY     32  24  73 W9        30.14R WCI  24
$$

ABBREVIATIONS USED IN REMARKS
   TC - TEMPERATURE IN CELSIUS
  WCI - WIND CHILL INDEX
   HX - HEAT INDEX
  VSB - VISIBILITY
$$





USA.gov is the U.S. government's official web portal to all federal, state and local government web resources and services.